| time (UTC) | temp F | wind direction | speed MPH | gust MPH | rain 1hr in | rain 24hr in | rain mn in | humidity % | barometer mb |
| 20260904031505 | 52 | 297 | 0.0 | 1.0 | 0.00 | 0.00 | 0.00 | 59 | 1012.3 |
| 20260904030006 | 53 | 317 | 0.0 | 0.0 | 0.00 | 0.00 | 0.00 | 57 | 1012.4 |
| 20260904024601 | 54 | 318 | 0.0 | 1.0 | 0.00 | 0.00 | 0.00 | 55 | 1012.1 |
| 20260904023100 | 55 | 296 | 0.0 | 1.0 | 0.00 | 0.00 | 0.00 | 53 | 1011.8 |
| 20260904021607 | 57 | 344 | 0.0 | 3.0 | 0.00 | 0.00 | 0.00 | 49 | 1011.6 |
| 20260904020058 | 60 | 319 | 0.0 | 0.0 | 0.00 | 0.00 | 0.00 | 47 | 1011.5 |
| 20260904014636 | 62 | 320 | 0.0 | 2.0 | 0.00 | 0.00 | 0.00 | 45 | 1011.4 |
| 20260904013055 | 64 | 320 | 0.0 | 3.0 | 0.00 | 0.00 | 0.00 | 42 | 1011.6 |
| 20260904011559 | 67 | 307 | 0.0 | 5.0 | 0.00 | 0.00 | 0.00 | 39 | 1011.6 |
| 20260904004553 | 68 | 290 | 2.0 | 7.0 | 0.00 | 0.01 | 0.00 | 37 | 1011.4 |
| 20260904003057 | 70 | 297 | 3.0 | 13.0 | 0.00 | 0.01 | 0.00 | 36 | 1011.3 |
| 20260904001549 | 71 | 272 | 6.0 | 12.0 | 0.00 | 0.01 | 0.00 | 35 | 1011.3 |
| 20260904000046 | 72 | 329 | 4.0 | 10.0 | 0.00 | 0.04 | 0.00 | 36 | 1011.2 |
| 20260903234542 | 73 | 276 | 1.0 | 8.0 | 0.00 | 0.04 | 0.00 | 34 | 1010.9 |
| 20260903233051 | 73 | 300 | 2.0 | 15.0 | 0.00 | 0.04 | 0.00 | 34 | 1010.9 |
| 20260903231542 | 73 | 312 | 2.0 | 12.0 | 0.00 | 0.04 | 0.00 | 34 | 1011.0 |
| 20260903230048 | 74 | 302 | 4.0 | 8.0 | 0.00 | 0.04 | 0.00 | 34 | 1010.8 |
| 20260903224538 | 75 | 293 | 2.0 | 10.0 | 0.00 | 0.04 | 0.00 | 35 | 1010.7 |
| 20260903223034 | 74 | 260 | 2.0 | 5.0 | 0.00 | 0.04 | 0.00 | 36 | 1010.4 |
| 20260903221534 | 73 | 266 | 3.0 | 8.0 | 0.00 | 0.04 | 0.00 | 36 | 1010.3 |
| 20260903220040 | 76 | 240 | 3.0 | 8.0 | 0.00 | 0.04 | 0.00 | 33 | 1010.2 |
| 20260903214502 | 76 | 254 | 4.0 | 13.0 | 0.00 | 0.04 | 0.00 | 32 | 1010.0 |
| 20260903213101 | 74 | 314 | 2.0 | 5.0 | 0.00 | 0.04 | 0.00 | 35 | 1009.9 |
| 20260903211600 | 75 | 237 | 2.0 | 8.0 | 0.00 | 0.04 | 0.00 | 33 | 1009.8 |
| 20260903210101 | 73 | 227 | 2.0 | 8.0 | 0.00 | 0.04 | 0.00 | 34 | 1009.9 |
| 20260903204556 | 73 | 243 | 3.0 | 6.0 | 0.00 | 0.04 | 0.00 | 34 | 1009.9 |
| 20260903203105 | 73 | 283 | 1.0 | 6.0 | 0.00 | 0.04 | 0.00 | 36 | 1009.9 |
| 20260903201554 | 72 | 269 | 3.0 | 8.0 | 0.00 | 0.04 | 0.00 | 36 | 1010.0 |
| 20260903200023 | 73 | 248 | 1.0 | 7.0 | 0.00 | 0.04 | 0.00 | 36 | 1010.1 |
| 20260903194523 | 74 | 269 | 5.0 | 12.0 | 0.00 | 0.04 | 0.00 | 35 | 1010.2 |
| 20260903193020 | 72 | 302 | 3.0 | 14.0 | 0.00 | 0.04 | 0.00 | 36 | 1010.1 |
| 20260903191519 | 74 | 245 | 4.0 | 8.0 | 0.00 | 0.04 | 0.00 | 34 | 1010.1 |
| 20260903190018 | 74 | 238 | 5.0 | 13.0 | 0.00 | 0.04 | 0.00 | 35 | 1010.0 |
| 20260903184515 | 72 | 238 | 8.0 | 16.0 | 0.00 | 0.04 | 0.00 | 36 | 1010.0 |
| 20260903183010 | 72 | 246 | 9.0 | 15.0 | 0.00 | 0.04 | 0.00 | 36 | 1009.8 |
| 20260903181509 | 72 | 250 | 11.0 | 18.0 | 0.00 | 0.04 | 0.00 | 36 | 1009.8 |
| 20260903180007 | 71 | 210 | 5.0 | 13.0 | 0.00 | 0.04 | 0.00 | 39 | 1009.9 |
| 20260903174505 | 71 | 233 | 5.0 | 13.0 | 0.00 | 0.04 | 0.00 | 40 | 1010.2 |
| 20260903173101 | 70 | 222 | 5.0 | 10.0 | 0.00 | 0.04 | 0.00 | 43 | 1010.2 |
| 20260903171558 | 68 | 246 | 2.0 | 8.0 | 0.00 | 0.04 | 0.00 | 49 | 1010.3 |
| 20260903170054 | 66 | 231 | 3.0 | 11.0 | 0.00 | 0.04 | 0.00 | 50 | 1010.4 |
| 20260903164548 | 64 | 226 | 3.0 | 7.0 | 0.00 | 0.04 | 0.00 | 53 | 1010.5 |
| 20260903163039 | 61 | 236 | 1.0 | 4.0 | 0.00 | 0.04 | 0.00 | 57 | 1010.3 |
| 20260903161536 | 57 | 257 | 0.0 | 0.0 | 0.00 | 0.04 | 0.00 | 68 | 1010.4 |
| 20260903160031 | 54 | 243 | 0.0 | 1.0 | 0.00 | 0.04 | 0.00 | 71 | 1010.5 |
| 20260903154528 | 53 | 27 | 0.0 | 0.0 | 0.00 | 0.04 | 0.00 | 76 | 1010.4 |
| 20260903153022 | 52 | 27 | 0.0 | 3.0 | 0.00 | 0.04 | 0.00 | 77 | 1010.5 |
| 20260903151521 | 51 | 191 | 0.0 | 1.0 | 0.00 | 0.04 | 0.00 | 80 | 1010.6 |
| 20260903150035 | 50 | 174 | 0.0 | 4.0 | 0.00 | 0.04 | 0.00 | 80 | 1010.5 |
| 20260903144526 | 50 | 173 | 0.0 | 2.0 | 0.00 | 0.04 | 0.00 | 83 | 1010.5 |
| 20260903143048 | 48 | 156 | 0.0 | 1.0 | 0.00 | 0.04 | 0.00 | 86 | 1010.3 |
| 20260903141548 | 44 | 233 | 0.0 | 1.0 | 0.00 | 0.04 | 0.00 | 90 | 1010.3 |
| 20260903140033 | 42 | 220 | 0.0 | 0.0 | 0.00 | 0.04 | 0.00 | 91 | 1010.2 |
| 20260903134512 | 41 | 338 | 0.0 | 0.0 | 0.00 | 0.04 | 0.00 | 90 | 1010.0 |
| 20260903133008 | 39 | 100 | 0.0 | 0.0 | 0.00 | 0.04 | 0.00 | 90 | 1009.8 |
| 20260903131507 | 38 | 100 | 0.0 | 2.0 | 0.00 | 0.04 | 0.00 | 89 | 1009.6 |
| 20260903130005 | 38 | 179 | 0.0 | 1.0 | 0.00 | 0.04 | 0.00 | 90 | 1009.3 |
| 20260903124504 | 38 | 129 | 0.0 | 0.0 | 0.00 | 0.04 | 0.00 | 89 | 1009.2 |
| 20260903123100 | 38 | 134 | 0.0 | 1.0 | 0.00 | 0.04 | 0.00 | 89 | 1009.1 |
| 20260903123001 | 38 | 241 | 0.0 | 1.0 | 0.00 | 0.04 | 0.00 | 89 | 1009.1 |
| 20260903121600 | 38 | 241 | 0.0 | 2.0 | 0.00 | 0.04 | 0.00 | 89 | 1008.8 |
| 20260903120113 | 38 | 153 | 0.0 | 3.0 | 0.00 | 0.04 | 0.00 | 89 | 1008.9 |
| 20260903114557 | 38 | 233 | 0.0 | 1.0 | 0.00 | 0.04 | 0.00 | 89 | 1009.0 |
| 20260903113058 | 38 | 285 | 0.0 | 0.0 | 0.00 | 0.04 | 0.00 | 89 | 1009.0 |
| 20260903111552 | 38 | 285 | 0.0 | 1.0 | 0.00 | 0.04 | 0.00 | 88 | 1009.2 |
| 20260903110053 | 38 | 300 | 0.0 | 3.0 | 0.00 | 0.04 | 0.00 | 88 | 1009.2 |
| 20260903104546 | 39 | 297 | 0.0 | 2.0 | 0.00 | 0.04 | 0.00 | 88 | 1009.4 |
| 20260903103042 | 40 | 174 | 0.0 | 0.0 | 0.00 | 0.04 | 0.00 | 88 | 1009.4 |
| 20260903101540 | 40 | 222 | 0.0 | 1.0 | 0.00 | 0.04 | 0.00 | 87 | 1009.3 |
| 20260903100038 | 40 | 217 | 0.0 | 0.0 | 0.00 | 0.04 | 0.00 | 86 | 1009.1 |
| 20260903094539 | 42 | 217 | 0.0 | 0.0 | 0.00 | 0.04 | 0.00 | 87 | 1009.0 |
| 20260903093029 | 42 | 204 | 0.0 | 1.0 | 0.00 | 0.04 | 0.00 | 85 | 1009.1 |
| 20260903091528 | 44 | 355 | 0.0 | 2.0 | 0.00 | 0.04 | 0.00 | 84 | 1008.8 |
| 20260903090024 | 43 | 53 | 0.0 | 1.0 | 0.00 | 0.04 | 0.00 | 84 | 1008.8 |
| 20260903084538 | 45 | 152 | 0.0 | 0.0 | 0.00 | 0.04 | 0.00 | 81 | 1008.7 |
| 20260903083014 | 47 | 226 | 0.0 | 2.0 | 0.00 | 0.04 | 0.00 | 80 | 1008.7 |
| 20260903081512 | 47 | 238 | 0.0 | 3.0 | 0.00 | 0.04 | 0.00 | 80 | 1008.7 |
| 20260903080009 | 48 | 224 | 1.0 | 4.0 | 0.00 | 0.04 | 0.00 | 80 | 1008.7 |
| 20260903074506 | 49 | 229 | 1.0 | 7.0 | 0.00 | 0.04 | 0.00 | 80 | 1008.4 |
| 20260903073006 | 50 | 177 | 0.0 | 3.0 | 0.00 | 0.04 | 0.00 | 81 | 1008.5 |
| 20260903071533 | 50 | 232 | 0.0 | 1.0 | 0.00 | 0.04 | 0.00 | 79 | 1008.5 |
| 20260903070032 | 51 | 259 | 0.0 | 2.0 | 0.00 | 0.04 | 0.00 | 78 | 1008.2 |
| 20260903064558 | 51 | 278 | 0.0 | 1.0 | 0.00 | 0.04 | 0.00 | 77 | 1008.6 |
| 20260903063107 | 50 | 233 | 0.0 | 0.0 | 0.00 | 0.04 | 0.00 | 80 | 1008.7 |
| 20260903061534 | 51 | 233 | 0.0 | 0.0 | 0.00 | 0.04 | 0.00 | 78 | 1008.8 |
| 20260903060029 | 52 | 233 | 0.0 | 1.0 | 0.00 | 0.04 | 0.04 | 75 | 1008.3 |
| 20260903054519 | 53 | 236 | 2.0 | 5.0 | 0.00 | 0.04 | 0.04 | 73 | 1008.6 |
| 20260903053028 | 54 | 239 | 3.0 | 5.0 | 0.00 | 0.04 | 0.04 | 73 | 1008.8 |
| 20260903051517 | 53 | 255 | 2.0 | 3.0 | 0.00 | 0.04 | 0.04 | 73 | 1008.9 |
| 20260903050016 | 54 | 240 | 4.0 | 7.0 | 0.00 | 0.04 | 0.04 | 71 | 1008.9 |
| 20260903044514 | 55 | 246 | 6.0 | 18.0 | 0.00 | 0.04 | 0.04 | 68 | 1009.2 |
| 20260903043028 | 55 | 259 | 7.0 | 13.0 | 0.00 | 0.04 | 0.04 | 67 | 1009.2 |
| 20260903041513 | 55 | 224 | 9.0 | 21.0 | 0.00 | 0.04 | 0.04 | 66 | 1009.2 |
| 20260903040011 | 52 | 217 | 5.0 | 11.0 | 0.00 | 0.04 | 0.04 | 73 | 1009.2 |
| 20260903034509 | 52 | 241 | 3.0 | 6.0 | 0.00 | 0.04 | 0.04 | 74 | 1009.2 |
| 20260903033009 | 52 | 233 | 3.0 | 6.0 | 0.00 | 0.04 | 0.04 | 74 | 1009.1 |